Location: Henau
(47.4548°N, 9.1164°E)
Time: 03:10:36
(UTC+00:00)

FALCON 9 DEB - Pass Details

Date: 03 March 2021
Orbit: 371 x 387 km, 53.0° (Epoch: 17 April)

Event Time Altitude Azimuth Distance (km) Brightness Sun altitude
Rises 17:33:10 0° 275° (W) 2,298 9.1 -4.4°
Reaches altitude 10° 17:35:23 10° 286° (WNW) 1,442 7.2 -4.8°
Maximum altitude 17:38:19 32° 351° (N) 718 4.3 -5.3°
Drops below altitude 10° 17:41:16 10° 57° (ENE) 1,444 5.2 -5.8°
Enters shadow 17:42:06 - 62° (ENE) 1,762 5.6 -5.9°
